This is the latest recevied weather packets stored in our database for station/object DL3TR-13. If no packets are shown the sender has not sent any weather packets the latest 10 day(s).
| Time | Temp. | Humidity | Pressure | Rain* | Wind** | Luminosity | Snow |
|---|---|---|---|---|---|---|---|
| 1777522993 | 5° C | 59% | 1020.7 hPa | 0 mm | - | 7 W/m² | - |
| 1777522393 | 5.56° C | 58% | 1020.8 hPa | 0 mm | - | 5 W/m² | - |
| 1777521793 | 5.56° C | 57% | 1020.7 hPa | 0 mm | - | 0 W/m² | - |
| 1777521192 | 5.56° C | 57% | 1020.6 hPa | 0 mm | - | 0 W/m² | - |
| 1777520593 | 5.56° C | 57% | 1020.6 hPa | 0 mm | - | 0 W/m² | - |
| 1777519993 | 6.11° C | 56% | 1020.6 hPa | 0 mm | - | 0 W/m² | - |
| 1777519393 | 5.56° C | 56% | 1020.6 hPa | 0 mm | - | 0 W/m² | - |
| 1777518792 | 5.56° C | 56% | 1020.6 hPa | 0 mm | - | 0 W/m² | - |
| 1777518192 | 5.56° C | 56% | 1020.6 hPa | 0 mm | - | 0 W/m² | - |
| 1777517593 | 6.11° C | 55% | 1020.6 hPa | 0 mm | - | 0 W/m² | - |
| 1777516993 | 6.11° C | 54% | 1020.7 hPa | 0 mm | - | 0 W/m² | - |
| 1777516393 | 6.67° C | 53% | 1020.6 hPa | 0 mm | - | 0 W/m² | - |
| 1777515793 | 6.67° C | 52% | 1020.6 hPa | 0 mm | - | 0 W/m² | - |
| 1777515192 | 6.67° C | 52% | 1020.5 hPa | 0 mm | - | 0 W/m² | - |
| 1777514592 | 6.67° C | 52% | 1020.7 hPa | 0 mm | - | 0 W/m² | - |
| 1777513992 | 6.67° C | 52% | 1020.6 hPa | 0 mm | - | 0 W/m² | - |
| 1777513392 | 6.67° C | 51% | 1020.8 hPa | 0 mm | - | 0 W/m² | - |
| 1777512793 | 6.67° C | 51% | 1020.7 hPa | 0 mm | - | 0 W/m² | - |
| 1777512192 | 6.67° C | 51% | 1020.7 hPa | 0 mm | - | 0 W/m² | - |
| 1777511593 | 6.67° C | 51% | 1020.8 hPa | 0 mm | - | 0 W/m² | - |
| 1777510993 | 6.67° C | 50% | 1020.8 hPa | 0 mm | - | 0 W/m² | - |
| 1777510392 | 7.22° C | 50% | 1020.7 hPa | 0 mm | - | 0 W/m² | - |
| 1777509792 | 7.22° C | 48% | 1020.6 hPa | 0 mm | - | 0 W/m² | - |
| 1777509192 | 7.78° C | 48% | 1020.6 hPa | 0 mm | - | 0 W/m² | - |
| 1777508593 | 7.78° C | 47% | 1020.6 hPa | 0 mm | - | 0 W/m² | - |
* Rain latest hour (hover to see other rain measurements)
** Current wind speed in m/s (hover to see current wind gust speed)